COSMOS 2226

Satellite information

Favourite Embed

Satellite Type and Status

PAYLOADIN ORBIT

Key statistics

Satellite COSMOS 2226 at a glance.

Uptime

12045

Days in orbit

Revolutions

≈ 12.4

Per day

Orbit

LEO

Low Earth Orbit

Inclination

73.6

Latest

Satellite identification and parameters

Extended collection of information and parameters for COSMOS 2226.

Object identification

Identified? True

Debris? False

Object name: COSMOS 2226

International designator: 1992-092A

Object number (NORAD): 22282

Object ID (CCSDS): 22282

Country: COMMONWEALTH OF INDEPENDENT STATES (CIS)

Current information (Y/N): Y

RCS size: LARGE

Orbital parameters

Period: 116.007 minutes

Inclination: 73.6255 deg

SMA: 7879.23 km

Apoapsis: 1525.092 km

Periapsis: 1477.099 km

RAAN: 356.1922 deg

Eccentricy: 0.00304555

Argument of periapsis: 293.5632 deg

Mean anomaly: 140.6651 deg

Mean motion: 12.41300871 rev/day

Mean motion (dot): -0.00000007 rev/day2

B* drag term: 0.000077612858 1/REarth

Two-line elements (TLE)

Creation date: Dec. 12, 2025, 10:14 a.m.

Reference frame: TEME

Reference center: EARTH

Epoch: Dec. 12, 2025, 5:17 a.m. UTC

TLE line 0: 0 COSMOS 2226

TLE line 1: 1 22282U 92092A 25346.22033729 -.00000007 00000-0 77613-4 0 9992

TLE line 2: 2 22282 73.6255 356.1922 0030456 293.5632 140.6651 12.41300871494009

Live tracking on map

Real-time ground track for satellite COSMOS 2226.

In-orbit conjunctions

A list of the most updated potential collisions computed for object COSMOS 2226.

Target Orbit TCA Probability of collision Miss distance Type
COSMOS 448 LEO 2024-07-11 20:22:37 0.02620103 81.0 (m) PAYLOAD

Associated space launch

A satellite for the GEO-IK geodetic system

COSMOS 2226 was lifted into orbit during the mission ‘Tsiklon-3 | Geo-IK 13’, on board a Tsiklon-3 space rocket.

The launch took place on Dec. 22, 1992, 12:36 p.m. from 32/2.

For more information about the launch, click the button.

Launch to space Tsiklon-3 | Geo-IK 13
Tsiklon-3 | Geo-IK 13

Agency: N/A

Status: Launch Successful

Launch date: Dec. 22, 1992, 12:36 p.m. UTC

Rocket: Tsiklon-3

Launch pad: 32/2

Location: Plesetsk Cosmodrome, Russian Federation

...

Latest news about this satellite

There are no fresh news available about this satellite. Check back as we update our databases every day.


Newsletter sign-up

Weekly statistics, charts and insights to help you stay on top of the space industry.